GW3344 Weather Reports


time (UTC)temp
F
wind
direction
speed
knots
gust
knots
rain 1hr
in
rain 24hr
in
rain mn
in
humidity
%
barometer
mb
20260509133925 57 237 1.7 6.1 0.00 0.00 0.00 76 1010.2
20260509132927 56 255 0.9 2.6 0.00 0.00 0.00 76 1010.3
20260509131924 56 256 1.7 5.2 0.00 0.00 0.00 77 1010.4
20260509130023 54 162 0.0 1.7 0.00 0.00 0.00 77 1010.5
20260509125025 54 180 0.0 0.0 0.00 0.00 0.00 78 1010.4
20260509124027 53 160 0.0 2.6 0.00 0.00 0.00 79 1010.6
20260509123124 53 135 0.0 0.0 0.00 0.00 0.00 80 1010.4
20260509122125 52 157 0.0 0.9 0.00 0.00 0.00 80 1010.6
20260509121125 51 90 0.0 0.0 0.00 0.00 0.00 81 1010.6
20260509120125 50 225 0.0 0.0 0.00 0.00 0.00 82 1010.5
20260509114225 48 135 0.0 0.0 0.00 0.00 0.00 85 1010.3
20260509113225 47 135 0.0 0.0 0.00 0.00 0.00 87 1010.3
20260509112325 47 135 0.0 0.0 0.00 0.00 0.00 87 1010.6
20260509111324 46 157 0.0 0.0 0.00 0.00 0.00 89 1010.5
20260509110324 45 157 0.0 0.0 0.00 0.00 0.00 89 1010.5
20260509103424 43 157 0.0 0.0 0.00 0.00 0.00 87 1010.3
20260509102524 43 157 0.0 0.0 0.00 0.00 0.00 88 1010.1
20260509100524 42 157 0.0 0.0 0.00 0.00 0.00 85 1010.0
20260509095525 42 157 0.0 0.0 0.00 0.00 0.00 85 1010.0
20260509094525 41 157 0.0 0.0 0.00 0.00 0.00 85 1009.9
20260509090625 41 90 0.0 0.0 0.00 0.00 0.00 84 1009.9
20260509085724 42 90 0.0 0.0 0.00 0.00 0.00 82 1010.1
20260509083741 42 90 0.0 0.0 0.00 0.00 0.00 83 1010.2
20260509082725 42 90 0.0 0.0 0.00 0.00 0.00 85 1010.3
20260509081725 42 90 0.0 0.0 0.00 0.00 0.00 82 1010.3
20260509080725 41 135 0.0 0.0 0.00 0.00 0.00 88 1010.3
20260509075823 40 180 0.0 0.0 0.00 0.00 0.00 90 1010.4
20260509073826 40 180 0.0 0.0 0.00 0.00 0.00 89 1010.7
20260509072923 40 180 0.0 0.0 0.00 0.00 0.00 89 1010.6
20260509071925 40 180 0.0 0.0 0.00 0.00 0.00 87 1010.7
20260509065925 40 180 0.0 0.0 0.00 0.00 0.00 87 1010.8
20260509064925 40 180 0.0 0.0 0.00 0.00 0.00 87 1010.9
20260509064023 40 180 0.0 0.0 0.00 0.00 0.00 86 1011.2
20260509063025 41 180 0.0 0.0 0.00 0.00 0.00 87 1011.3
20260509062026 41 180 0.0 0.0 0.00 0.00 0.00 85 1011.4
20260509061124 41 180 0.0 0.0 0.00 0.00 0.00 87 1011.5
20260509060223 41 180 0.0 0.0 0.00 0.00 0.00 88 1011.5
20260509055227 41 180 0.0 0.0 0.00 0.00 0.00 87 1011.6
20260509054325 41 180 0.0 0.0 0.00 0.00 0.00 85 1011.7
20260509053325 41 180 0.0 0.0 0.00 0.00 0.00 86 1011.7
20260509051327 40 247 0.0 0.0 0.00 0.00 0.00 90 1012.0
20260509045324 41 247 0.0 0.0 0.00 0.00 0.00 91 1012.1
20260509044423 41 247 0.0 0.0 0.00 0.00 0.00 90 1012.2
20260509042425 41 247 0.0 0.0 0.00 0.00 0.00 92 1012.4
20260509041424 40 247 0.0 0.0 0.00 0.00 0.00 93 1012.4
20260509040424 40 247 0.0 0.0 0.00 0.00 0.00 91 1012.6
20260509035511 40 247 0.0 0.0 0.00 0.00 0.00 92 1012.6
20260509034507 41 247 0.0 0.0 0.00 0.00 0.00 93 1012.8
20260509033509 41 247 0.0 0.0 0.00 0.00 0.00 90 1012.7
20260509032509 41 247 0.0 0.0 0.00 0.00 0.00 90 1012.9
20260509032407 41 247 0.0 0.0 0.00 0.00 0.00 90 1012.8
20260509031409 41 247 0.0 0.0 0.00 0.00 0.00 90 1013.0
20260509030409 42 247 0.0 0.0 0.00 0.00 0.00 90 1012.9
20260509025424 41 247 0.0 0.0 0.00 0.00 0.00 87 1013.0
20260509024507 42 247 0.0 0.0 0.00 0.00 0.00 86 1013.0
20260509022510 43 247 0.0 0.0 0.00 0.00 0.00 83 1013.0
20260509021607 43 247 0.0 0.0 0.00 0.00 0.00 81 1013.0
20260509020609 43 247 0.0 0.0 0.00 0.00 0.00 79 1013.0
20260509015707 44 247 0.0 0.0 0.00 0.00 0.00 80 1013.0
20260509014709 44 247 0.0 0.0 0.00 0.00 0.00 81 1013.0
20260509013710 44 247 0.0 0.0 0.00 0.00 0.00 76 1013.2
20260509012809 45 247 0.0 0.0 0.00 0.00 0.00 77 1013.2
20260509011823 45 247 0.0 0.0 0.00 0.00 0.00 76 1013.0
20260509011708 45 247 0.0 0.0 0.00 0.00 0.00 77 1013.1
20260509011609 45 247 0.0 0.0 0.00 0.00 0.00 76 1013.2
20260509010707 46 247 0.0 0.0 0.00 0.00 0.00 75 1013.2
20260509005708 47 247 0.0 0.0 0.00 0.00 0.00 76 1013.1
20260509004724 48 247 0.0 0.0 0.00 0.00 0.00 71 1013.0
20260509003810 49 247 0.0 0.0 0.00 0.01 0.00 72 1012.9
20260509002810 51 247 0.0 0.0 0.00 0.01 0.00 64 1012.9
20260509001808 52 247 0.0 0.0 0.00 0.01 0.00 60 1012.8
20260509000809 54 247 0.0 0.0 0.00 0.01 0.00 53 1012.8
20260508235808 55 247 0.0 0.0 0.00 0.01 0.00 51 1012.8
20260508234808 56 247 0.0 0.0 0.00 0.01 0.00 50 1012.8
20260508233808 56 247 0.0 1.7 0.00 0.01 0.00 47 1012.8
20260508232807 57 270 0.0 0.0 0.00 0.01 0.00 47 1012.8
20260508230810 57 285 0.9 1.7 0.00 0.01 0.00 43 1012.6
20260508225808 57 250 0.0 0.0 0.00 0.01 0.00 44 1012.8
20260508225725 57 180 0.0 0.0 0.00 0.01 0.00 44 1012.8
20260508224709 56 270 0.0 0.0 0.00 0.01 0.00 43 1012.8
20260508223808 57 107 1.7 3.5 0.00 0.01 0.00 41 1012.6
20260508221809 58 135 0.0 0.0 0.00 0.01 0.00 39 1012.8
20260508220809 58 157 0.0 0.0 0.00 0.01 0.00 38 1012.8
20260508215823 59 148 0.0 0.0 0.00 0.01 0.00 37 1012.9
20260508214808 57 360 0.0 0.0 0.00 0.01 0.00 39 1013.0
20260508213809 57 67 0.9 2.6 0.00 0.01 0.00 44 1012.9
20260508212808 57 45 0.0 0.0 0.00 0.01 0.00 44 1012.9
20260508211906 57 45 0.0 1.7 0.00 0.01 0.00 44 1013.0
20260508210908 57 45 0.0 0.9 0.00 0.01 0.00 43 1012.9
20260508210008 57 22 0.0 0.0 0.00 0.01 0.00 46 1013.0
20260508205009 57 45 0.0 2.6 0.00 0.01 0.00 41 1013.1
20260508204007 58 270 4.3 6.1 0.00 0.01 0.00 39 1013.2
20260508203010 58 279 0.0 2.6 0.00 0.01 0.00 39 1013.2
20260508202107 57 90 0.0 0.9 0.00 0.01 0.00 38 1013.3
20260508201108 57 203 0.0 1.7 0.00 0.01 0.00 38 1013.4
20260508200207 59 310 8.7 10.4 0.00 0.01 0.00 38 1013.2
20260508195208 58 35 0.0 1.7 0.00 0.01 0.00 37 1013.4
20260508193207 56 97 2.6 4.3 0.00 0.01 0.00 42 1013.9
20260508192207 57 314 2.6 5.2 0.00 0.01 0.00 45 1014.1
20260508191210 56 9 0.0 0.9 0.00 0.01 0.00 49 1014.5
20260508190206 56 277 1.7 4.3 0.00 0.01 0.00 51 1014.5
20260508190107 56 323 1.7 4.3 0.00 0.01 0.00 52 1014.6
20260508185108 56 17 0.0 1.7 0.00 0.01 0.00 56 1014.6
20260508184208 57 324 1.7 4.3 0.00 0.01 0.00 59 1014.7
20260508183208 56 15 0.0 0.9 0.00 0.01 0.00 62 1014.6
20260508182307 56 18 0.0 2.6 0.00 0.01 0.00 60 1014.5
20260508180406 56 334 0.0 1.7 0.00 0.01 0.00 60 1014.6
20260508175506 57 300 2.6 3.5 0.00 0.01 0.00 59 1014.6
20260508174507 55 356 1.7 2.6 0.00 0.01 0.00 57 1014.6
20260508173508 54 327 0.9 4.3 0.00 0.01 0.00 53 1014.8
20260508172607 53 306 1.7 3.5 0.00 0.01 0.00 54 1014.7
20260508171609 53 272 8.7 13.9 0.00 0.01 0.00 59 1014.8
20260508170707 52 284 0.9 3.5 0.00 0.01 0.00 60 1014.7
20260508165708 52 258 7.8 11.3 0.00 0.01 0.00 61 1014.7
20260508162708 52 195 2.6 5.2 0.00 0.01 0.00 67 1015.3
20260508155707 50 180 0.0 0.0 0.00 0.01 0.00 74 1015.5
20260508154709 50 276 6.1 7.0 0.00 0.01 0.00 71 1015.5
20260508153806 49 135 0.0 0.0 0.00 0.01 0.00 72 1015.5
20260508151809 49 232 2.6 5.2 0.00 0.01 0.00 72 1015.6
20260508150808 48 225 0.0 0.9 0.00 0.01 0.00 73 1015.6
20260508145907 48 270 4.3 8.7 0.00 0.01 0.00 78 1015.5
20260508144907 46 360 0.0 0.0 0.00 0.01 0.00 79 1015.3
20260508143909 46 230 3.5 5.2 0.00 0.01 0.00 79 1015.5
20260508143008 47 264 1.7 2.6 0.00 0.01 0.00 82 1015.3
20260508141007 46 249 1.7 4.3 0.00 0.01 0.00 86 1015.2
20260508140008 45 270 3.5 6.1 0.00 0.01 0.00 86 1015.2